JAS-2 (FO-29)

Last updated on Mon Sep 15 2025 00:03:09 GMT+0000 (Coordinated Universal Time)

1 24278U 96046B 25257.09111592 -.00000032 00000+0 76852-6 0 9996 2 24278 98.5590 138.2203 0350902 92.5032 271.6321 13.53253556435822
UTC large
Height (km)
Speed (km/s)
/
Latitude / Longitude
Inclination (degrees)
Orbital Period (minutes)
Azimuth
Elevation
Range (km)
Doppler Factor

Next 0 passes for location: London (51.5072 / 0.1276)

Sorry there are no passes over London.